Fort George G Meade, MD

6:49 AM EST on December 07, 2016 (GMT -0500)
Tipton

Weather History for KFME - June, 2014

Change the Weather History Date:

Sunday, June 8, 2014

  Actual Average (KBWI) Record (KBWI)
Temperature  
Mean Temperature 66 °F 70 °F  
Max Temperature 80 °F 81 °F 99 °F (2011)
Min Temperature 53 °F 60 °F 43 °F (1977)
Degree Days  
Heating Degree Days 0 1  
Month to date heating degree days 10  
Since 1 June heating degree days 10  
Since 1 July heating degree days 4759  
Cooling Degree Days 2 6  
Month to date cooling degree days 43  
Year to date cooling degree days 127  
Since 1 June cooling degree days 43  
Growing Degree Days 16 (Base 50)    
Moisture  
Dew Point 58 °F    
Average Humidity 73    
Maximum Humidity 100    
Minimum Humidity 48    
Precipitation  
Precipitation 0.00 in 0.13 in 2.38 in (1955)
Month to date precipitation 1.00  
Year to date precipitation 18.03  
Snow  
Snow 0.00 in 0.00 in - ()
Month to date snowfall 0.0  
Since 1 July snowfall 20.1  
Snow Depth -    
Sea Level Pressure  
Sea Level Pressure 29.95 in    
Wind  
Wind Speed 3 mph (SSE)    
Max Wind Speed 13 mph    
Max Gust Speed 17 mph    
Visibility 10 miles    
Events      
T = Trace of Precipitation, MM = Missing Value Source: NWS Daily Summary

Daily Weather History Graph

Daily Weather History Graph

Search for Another Location

Airport or City:

Trip Planner

Search our weather history database for the weather conditions in past years. The results will help you decide how hot, cold, wet, or windy it might be!

Date:

Astronomy

Jun. 08, 2014 Rise Set
Actual Time 5:41 AM EDT 8:31 PM EDT
Civil Twilight 5:09 AM EDT 9:03 PM EDT
Nautical Twilight 4:29 AM EDT 9:43 PM EDT
Astronomical Twilight 3:43 AM EDT 10:29 PM EDT
Moon 3:49 PM EDT (6/8) 2:30 AM EDT (6/8)
Length of Visible Light 15h 54m
Length of Day
14h 50m
Waxing Gibbous, 77% of the Moon is Illuminated
Jun 8
Waxing Gibbous
Jun 13
Full
Jun 19
Last Quarter
Jun 27
New
Jul 5
First Quarter

Hourly Weather History & Observations

Time (EDT) Temp. Heat Index Dew Point Humidity Pressure Visibility Wind Dir Wind Speed Gust Speed Precip Events Conditions
12:00 AM 59.0 °F - 55.4 °F 88% 30.00 in 10.0 mi Calm Calm - N/A   Clear
12:18 AM 57.2 °F - 55.4 °F 94% 30.00 in 10.0 mi Calm Calm - N/A   Clear
12:39 AM 55.4 °F - 53.6 °F 94% 30.00 in 10.0 mi Calm Calm - N/A   Clear
1:00 AM 55.4 °F - 55.4 °F 100% 30.01 in 10.0 mi Calm Calm - N/A   Clear
1:18 AM 55.4 °F - 53.6 °F 94% 30.01 in 10.0 mi Calm Calm - N/A   Clear
1:39 AM 55.4 °F - 53.6 °F 94% 30.01 in 10.0 mi Calm Calm - N/A   Clear
2:00 AM 55.4 °F - 53.6 °F 94% 30.00 in 10.0 mi Calm Calm - N/A   Clear
2:18 AM 55.4 °F - 53.6 °F 94% 29.99 in 10.0 mi Calm Calm - N/A   Clear
2:39 AM 55.4 °F - 53.6 °F 94% 29.99 in 10.0 mi Calm Calm - N/A   Clear
3:00 AM 55.4 °F - 53.6 °F 94% 29.98 in 10.0 mi Calm Calm - N/A   Clear
3:18 AM 55.4 °F - 53.6 °F 94% 29.98 in 10.0 mi Calm Calm - N/A   Clear
3:39 AM 53.6 °F - 53.6 °F 100% 29.98 in 10.0 mi Calm Calm - N/A   Clear
4:00 AM 53.6 °F - 53.6 °F 100% 29.98 in 10.0 mi Calm Calm - N/A   Clear
4:18 AM 53.6 °F - 51.8 °F 94% 29.98 in 10.0 mi Calm Calm - N/A   Clear
4:39 AM 53.6 °F - 53.6 °F 100% 29.98 in 10.0 mi Calm Calm - N/A   Clear
5:00 AM 53.6 °F - 51.8 °F 94% 29.98 in 10.0 mi Calm Calm - N/A   Clear
5:21 AM 53.6 °F - 51.8 °F 94% 29.98 in 10.0 mi Calm Calm - N/A   Clear
5:39 AM 53.6 °F - 51.8 °F 94% 29.99 in 10.0 mi Calm Calm - N/A   Clear
6:00 AM 53.6 °F - 51.8 °F 94% 29.99 in 10.0 mi Calm Calm - N/A   Clear
6:21 AM 53.6 °F - 53.6 °F 100% 29.99 in 10.0 mi Calm Calm - N/A   Clear
6:39 AM 55.4 °F - 53.6 °F 94% 29.99 in 10.0 mi Calm Calm - N/A   Clear
7:00 AM 55.4 °F - 55.4 °F 100% 30.00 in 10.0 mi Calm Calm - N/A   Clear
7:21 AM 57.2 °F - 55.4 °F 94% 30.01 in 10.0 mi Calm Calm - N/A   Clear
7:39 AM 59.0 °F - 55.4 °F 88% 30.00 in 10.0 mi Calm Calm - N/A   Clear
8:00 AM 62.6 °F - 59.0 °F 88% 30.00 in 10.0 mi Calm Calm - N/A   Clear
8:21 AM 64.4 °F - 60.8 °F 88% 30.00 in 10.0 mi Calm Calm - N/A   Clear
8:39 AM 68.0 °F - 60.8 °F 78% 30.00 in 10.0 mi Calm Calm - N/A   Clear
9:00 AM 69.8 °F - 60.8 °F 73% 29.99 in 10.0 mi South 3.5 mph - N/A   Clear
9:21 AM 71.6 °F - 60.8 °F 69% 30.00 in 10.0 mi Calm Calm - N/A   Clear
9:39 AM 73.4 °F - 60.8 °F 65% 29.99 in 10.0 mi SW 4.6 mph - N/A   Clear
10:00 AM 75.2 °F - 62.6 °F 65% 29.99 in 10.0 mi SSW 3.5 mph - N/A   Clear
10:39 AM 77.0 °F - 59.0 °F 54% 29.98 in 10.0 mi SW 9.2 mph - N/A   Clear
11:00 AM 78.8 °F - 59.0 °F 51% 29.98 in 10.0 mi South 9.2 mph - N/A   Clear
11:21 AM 78.8 °F - 59.0 °F 51% 29.98 in 10.0 mi SSW 8.1 mph - N/A   Clear
11:39 AM 78.8 °F - 59.0 °F 51% 29.97 in 10.0 mi South 8.1 mph 16.1 mph N/A   Clear
12:00 PM 80.6 °F 81.1 °F 59.0 °F 48% 29.97 in 10.0 mi South 6.9 mph - N/A   Clear
12:21 PM 80.6 °F 81.1 °F 59.0 °F 48% 29.96 in 10.0 mi SSW 8.1 mph - N/A   Clear
12:39 PM 80.6 °F 81.1 °F 59.0 °F 48% 29.95 in 10.0 mi SE 9.2 mph - N/A   Clear
1:21 PM 78.8 °F - 59.0 °F 51% 29.95 in 10.0 mi SSE 6.9 mph - N/A   Scattered Clouds
2:21 PM 78.8 °F - 59.0 °F 51% 29.93 in 10.0 mi SSE 9.2 mph - N/A   Clear
2:42 PM 78.8 °F - 59.0 °F 51% 29.94 in 10.0 mi SE 10.4 mph - N/A   Scattered Clouds
3:00 PM 80.6 °F 81.1 °F 59.0 °F 48% 29.93 in 10.0 mi SE 9.2 mph - N/A   Scattered Clouds
3:21 PM 80.6 °F 81.5 °F 60.8 °F 51% 29.93 in 10.0 mi SE 11.5 mph 17.3 mph N/A   Clear
3:42 PM 80.6 °F 81.5 °F 60.8 °F 51% 29.91 in 10.0 mi SE 12.7 mph 17.3 mph N/A   Clear
4:00 PM 77.0 °F - 60.8 °F 57% 29.90 in 10.0 mi SE 8.1 mph 17.3 mph N/A   Clear
4:21 PM 78.8 °F - 60.8 °F 54% 29.90 in 10.0 mi SSE 6.9 mph - N/A   Clear
4:42 PM 77.0 °F - 60.8 °F 57% 29.89 in 10.0 mi SE 6.9 mph - N/A   Clear
5:00 PM 78.8 °F - 60.8 °F 54% 29.89 in 10.0 mi SE 10.4 mph - N/A   Clear
5:21 PM 77.0 °F - 60.8 °F 57% 29.88 in 10.0 mi SE 5.8 mph - N/A   Clear
5:42 PM 78.8 °F - 60.8 °F 54% 29.88 in 10.0 mi SE 9.2 mph - N/A   Clear
6:00 PM 77.0 °F - 60.8 °F 57% 29.87 in 10.0 mi SE 9.2 mph - N/A   Clear
6:21 PM 77.0 °F - 59.0 °F 54% 29.88 in 10.0 mi SSE 6.9 mph - N/A   Scattered Clouds
6:42 PM 77.0 °F - 60.8 °F 57% 29.88 in 10.0 mi SE 5.8 mph - N/A   Overcast
7:00 PM 75.2 °F - 59.0 °F 57% 29.88 in 10.0 mi SE 6.9 mph - N/A   Mostly Cloudy
7:21 PM 75.2 °F - 59.0 °F 57% 29.88 in 10.0 mi SE 8.1 mph - N/A   Mostly Cloudy
7:42 PM 73.4 °F - 59.0 °F 61% 29.87 in 10.0 mi SE 5.8 mph - N/A   Scattered Clouds
8:00 PM 73.4 °F - 59.0 °F 61% 29.86 in 10.0 mi SE 6.9 mph - N/A   Clear
8:21 PM 73.4 °F - 59.0 °F 61% 29.88 in 10.0 mi SE 5.8 mph - N/A   Scattered Clouds
8:42 PM 73.4 °F - 59.0 °F 61% 29.88 in 10.0 mi SE 5.8 mph - N/A   Scattered Clouds
9:00 PM 73.4 °F - 60.8 °F 65% 29.88 in 10.0 mi SE 8.1 mph - N/A   Clear
9:21 PM 71.6 °F - 60.8 °F 69% 29.88 in 10.0 mi SE 6.9 mph - N/A   Clear
9:42 PM 71.6 °F - 60.8 °F 69% 29.89 in 10.0 mi SE 6.9 mph - N/A   Clear
10:21 PM 71.6 °F - 62.6 °F 73% 29.89 in 10.0 mi SSE 5.8 mph - N/A   Scattered Clouds
10:42 PM 71.6 °F - 62.6 °F 73% 29.89 in 10.0 mi SSE 5.8 mph - N/A   Mostly Cloudy
11:03 PM 69.8 °F - 64.4 °F 83% 29.90 in 10.0 mi Calm Calm - N/A   Overcast
11:21 PM 68.0 °F - 64.4 °F 88% 29.89 in 10.0 mi South 3.5 mph - N/A   Scattered Clouds
11:42 PM 68.0 °F - 62.6 °F 83% 29.89 in 10.0 mi South 4.6 mph - N/A   Scattered Clouds